M I D A S
Marine Information and Data Acquisition System
Tripno 1697 of the Zeeleeuw from 2009-05-20 04:33:05 to 2009-05-20 14:30:48
Back to CruiseResearch ActivitiesStationsMapUnderway DataData graphs

EquipmentUnitsComment
TimeDGPSUTC
LatitudeDGPSDM.mWGS84
LongitudeDGPSDM.mWGS84
TemperatureSBE03/SBE38deg celciusITS90
ConductivitySBE21S/mITS90
SalinitySBE21 Practical Salinity Units
ChlorophylAChelsea fluorimeterg/lCalibrated in Aceton
Missing or incorrect values are displayed as -999
Sea surface data collected by the RV Zeeleeuw from 2009-05-20 04:02:50 to 2009-05-20 14:39:44
Time Latitude Longitude Temperature Conductivity Salinity ChlorophylA
2009-05-20 04:03:53 51°13.664 2°55.959 -999 0.069787 0.367266 -0.687152
2009-05-20 04:04:53 51°13.663 2°55.96 -999 0.069787 0.367248 -0.652328
2009-05-20 04:05:53 51°13.663 2°55.96 -999 0.069787 0.367242 -0.687152
2009-05-20 04:06:53 51°13.663 2°55.96 -999 0.069787 0.367235 -0.687152
2009-05-20 04:07:53 51°13.663 2°55.959 -999 0.069787 0.367235 -0.687152
2009-05-20 04:08:53 51°13.662 2°55.96 -999 0.069787 0.367248 -0.687152
2009-05-20 04:09:53 51°13.661 2°55.959 -999 0.069787 0.367254 -0.687152
2009-05-20 04:10:53 51°13.662 2°55.96 -999 0.069787 0.367266 -0.687152
2009-05-20 04:11:53 51°13.664 2°55.959 -999 0.069787 0.367279 -0.687152
2009-05-20 04:12:53 51°13.663 2°55.959 -999 0.069787 0.367303 -0.687152
2009-05-20 04:13:53 51°13.663 2°55.959 -999 0.069787 0.367322 -0.687152
2009-05-20 04:14:53 51°13.663 2°55.959 -999 0.069787 0.36734 -0.687152
2009-05-20 04:15:55 51°13.663 2°55.959 -999 0.069787 0.367365 -0.687152
2009-05-20 04:16:55 51°13.663 2°55.96 -999 0.069787 0.367377 -0.687152
2009-05-20 04:17:56 51°13.662 2°55.959 -999 0.069787 0.367408 -0.652328
2009-05-20 04:18:56 51°13.677 2°55.906 -999 0.069787 0.36742 -0.687152
2009-05-20 04:19:56 51°13.694 2°55.823 -999 0.069787 0.367457 -0.687152
2009-05-20 04:20:56 51°13.7 2°55.756 -999 0.069787 0.36747 -0.687152
2009-05-20 04:21:54 51°13.711 2°55.756 -999 0.069787 0.367513 -0.687152
2009-05-20 04:22:52 51°13.716 2°55.743 -999 0.069787 0.367532 -0.687152
2009-05-20 04:23:52 51°13.747 2°55.708 -999 0.069787 0.36755 -0.687152
2009-05-20 04:24:51 51°13.786 2°55.661 -999 0.069787 0.367593 -0.687152
2009-05-20 04:25:53 51°13.837 2°55.635 -999 0.069787 0.36763 -0.687152
2009-05-20 04:26:51 51°13.878 2°55.632 -999 0.069787 0.367649 -0.652328
2009-05-20 04:27:53 51°13.916 2°55.638 -999 0.069684 0.367127 -0.687152
2009-05-20 04:28:51 51°13.949 2°55.637 -999 0.069684 0.367151 -0.652328
2009-05-20 04:29:51 51°13.959 2°55.635 -999 0.069684 0.367182 -0.687152
2009-05-20 04:30:52 51°13.96 2°55.634 -999 0.069684 0.367213 -0.652328
2009-05-20 04:31:51 51°14.025 2°55.558 -999 0.069684 0.367238 -0.687152
2009-05-20 04:32:51 51°14.135 2°55.418 -999 0.069684 0.367263 -0.687152
2009-05-20 04:33:51 51°14.248 2°55.269 -999 0.069684 0.367294 -0.687152
2009-05-20 04:34:53 51°14.354 2°55.064 -999 0.069684 0.367318 -0.687152
2009-05-20 04:35:52 51°14.457 2°54.829 -999 0.069684 0.367361 -0.687152
2009-05-20 04:36:53 51°14.571 2°54.57 -999 0.069684 0.367374 -0.687152
2009-05-20 04:37:51 51°14.669 2°54.302 -999 0.069684 0.367405 -0.687152
2009-05-20 04:38:53 51°14.759 2°54.001 -999 0.069684 0.367423 -0.687152
2009-05-20 04:39:51 51°14.832 2°53.711 -999 0.069684 0.367454 -0.687152
2009-05-20 04:40:51 51°14.896 2°53.403 -999 0.069684 0.367491 -0.687152
2009-05-20 04:41:53 51°14.958 2°53.083 -999 0.069684 0.367535 -0.652328
2009-05-20 04:42:51 51°15.017 2°52.786 -999 0.069684 0.367584 -0.652328
2009-05-20 04:43:53 51°15.081 2°52.469 -999 0.069581 0.367068 -0.687152
2009-05-20 04:44:51 51°15.149 2°52.177 -999 0.069581 0.367123 -0.652328
2009-05-20 04:45:53 51°15.237 2°51.876 -999 0.069581 0.367179 -0.687152
2009-05-20 04:46:51 51°15.304 2°51.583 -999 0.069581 0.367235 -0.687152
2009-05-20 04:47:53 51°15.317 2°51.245 -999 0.069581 0.367284 -0.652328
2009-05-20 04:48:51 51°15.309 2°50.925 -999 0.069581 0.36734 -0.687152
2009-05-20 04:49:51 51°15.309 2°50.594 -999 0.069581 0.367402 -0.687152
2009-05-20 04:50:53 51°15.311 2°50.25 -999 0.069581 0.367464 -0.687152
2009-05-20 04:51:52 51°15.311 2°49.924 -999 0.069581 0.367519 -0.687152
2009-05-20 04:52:53 51°15.308 2°49.589 -999 0.069478 0.367015 -0.687152
2009-05-20 04:53:52 51°15.305 2°49.267 -999 0.069478 0.367076 -0.687152
2009-05-20 04:54:52 51°15.303 2°48.944 -999 0.069478 0.367132 -0.687152
2009-05-20 04:55:52 51°15.295 2°48.621 -999 0.069478 0.367188 -0.687152
2009-05-20 04:56:52 51°15.286 2°48.3 -999 0.069478 0.367244 -0.687152
2009-05-20 04:57:52 51°15.273 2°47.983 -999 0.069478 0.3673 -0.687152
2009-05-20 04:58:52 51°15.262 2°47.667 -999 0.069478 0.367355 -0.687152
2009-05-20 04:59:53 51°15.24 2°47.345 -999 0.069478 0.367411 -0.687152
2009-05-20 05:00:52 51°15.213 2°47.034 -999 0.069375 0.3669 -0.687152
2009-05-20 05:01:53 51°15.186 2°46.712 -999 0.069375 0.366955 -0.687152
2009-05-20 05:02:52 51°15.163 2°46.398 -999 0.069478 0.36756 -0.687152
2009-05-20 05:03:52 51°15.146 2°46.077 -999 0.069375 0.367048 -0.687152
2009-05-20 05:04:55 51°15.125 2°45.737 -999 0.069375 0.367098 -0.687152
2009-05-20 05:05:56 51°15.105 2°45.407 -999 0.069375 0.367148 -0.687152
2009-05-20 05:06:56 51°15.083 2°45.083 -999 0.069375 0.367191 -0.687152
2009-05-20 05:07:56 51°15.058 2°44.757 -999 0.069375 0.367235 -0.687152
2009-05-20 05:08:56 51°15.038 2°44.43 -999 0.069375 0.367284 -0.687152
2009-05-20 05:09:56 51°15.019 2°44.102 -999 0.069375 0.367328 -0.687152
2009-05-20 05:10:56 51°14.994 2°43.778 -999 0.069375 0.367372 -0.687152
2009-05-20 05:11:56 51°14.974 2°43.458 -999 0.069273 0.366865 -0.687152
2009-05-20 05:12:56 51°14.954 2°43.139 -999 0.069273 0.366903 -0.687152
2009-05-20 05:13:54 51°14.933 2°42.832 -999 0.069273 0.366952 -0.687152
2009-05-20 05:14:52 51°14.909 2°42.527 -999 0.069273 0.366996 -0.687152
2009-05-20 05:15:53 51°14.888 2°42.205 -999 0.069273 0.367039 -0.687152
2009-05-20 05:16:51 51°14.868 2°41.899 -999 0.069273 0.367083 -0.687152
2009-05-20 05:17:53 51°14.846 2°41.573 -999 0.069273 0.367133 -0.687152
2009-05-20 05:18:52 51°14.827 2°41.264 -999 0.069273 0.367182 -0.687152
2009-05-20 05:19:53 51°14.805 2°40.947 -999 0.069273 0.367232 -0.687152
2009-05-20 05:20:52 51°14.747 2°40.652 -999 0.069273 0.367263 -0.687152
2009-05-20 05:21:52 51°14.679 2°40.355 -999 0.069273 0.367313 -0.687152
2009-05-20 05:22:51 51°14.614 2°40.062 -999 0.069273 0.367369 -0.687152
2009-05-20 05:23:53 51°14.545 2°39.755 -999 0.069273 0.367425 -0.687152
2009-05-20 05:24:53 51°14.478 2°39.457 -999 0.069273 0.367475 -0.687152
2009-05-20 05:25:52 51°14.412 2°39.163 -999 0.069273 0.367538 -0.687152
2009-05-20 05:26:53 51°14.341 2°38.859 -999 0.06917 0.367043 -0.687152
2009-05-20 05:27:52 51°14.272 2°38.563 -999 0.06917 0.367099 -0.687152
2009-05-20 05:28:52 51°14.203 2°38.261 -999 0.06917 0.367161 -0.687152
2009-05-20 05:29:52 51°14.14 2°37.956 -999 0.06917 0.367236 -0.687152
2009-05-20 05:30:53 51°14.058 2°37.655 -999 0.06917 0.367299 -0.687152
2009-05-20 05:31:53 51°13.974 2°37.363 -999 0.06917 0.367367 -0.687152
2009-05-20 05:32:52 51°13.891 2°37.078 -999 0.06917 0.367436 -0.687152
2009-05-20 05:33:53 51°13.805 2°36.783 -999 0.06917 0.367511 -0.687152
2009-05-20 05:34:52 51°13.726 2°36.495 -999 0.06917 0.36758 -0.687152
2009-05-20 05:35:53 51°13.634 2°36.205 -999 0.06917 0.367648 -0.687152
2009-05-20 05:36:52 51°13.546 2°35.924 -999 0.06917 0.367724 -0.687152
2009-05-20 05:37:53 51°13.456 2°35.634 -999 0.06917 0.367799 -0.687152
2009-05-20 05:38:53 51°13.362 2°35.353 -999 0.069067 0.367303 -0.687152
2009-05-20 05:39:52 51°13.271 2°35.078 -999 0.069067 0.367372 -0.687152
2009-05-20 05:40:53 51°13.179 2°34.791 -999 0.069067 0.367447 -0.687152
2009-05-20 05:41:53 51°13.088 2°34.511 -999 0.069067 0.367516 -0.687152
2009-05-20 05:42:53 51°12.998 2°34.23 -999 0.069067 0.367585 -0.687152
2009-05-20 05:43:52 51°12.924 2°33.992 -999 0.069067 0.36766 -0.687152
2009-05-20 05:44:53 51°12.875 2°33.862 -999 0.069067 0.367723 -0.687152
2009-05-20 05:45:52 51°12.84 2°33.794 -999 0.069067 0.367785 -0.687152
2009-05-20 05:46:53 51°12.822 2°33.736 -999 0.069067 0.367861 -0.687152
2009-05-20 05:47:52 51°12.803 2°33.674 -999 0.069067 0.367911 -0.687152
2009-05-20 05:48:53 51°12.774 2°33.558 -999 0.069067 0.367967 -0.687152
2009-05-20 05:49:53 51°12.741 2°33.439 -999 0.069067 0.368024 -0.687152
2009-05-20 05:50:52 51°12.72 2°33.334 -999 0.069067 0.368087 -0.687152
2009-05-20 05:51:53 51°12.693 2°33.262 -999 0.069067 0.368131 -0.687152
2009-05-20 05:52:52 51°12.669 2°33.222 -999 0.068964 0.367621 -0.687152
2009-05-20 05:53:53 51°12.645 2°33.194 -999 0.068964 0.367665 -0.687152
2009-05-20 05:54:52 51°12.633 2°33.145 -999 0.068964 0.367741 -0.687152
2009-05-20 05:55:53 51°12.64 2°33.116 -999 0.068964 0.367785 -0.687152
2009-05-20 05:56:53 51°12.636 2°33.124 -999 0.068964 0.367816 -0.687152
2009-05-20 05:57:53 51°12.659 2°33.149 -999 0.068964 0.367892 -0.687152
2009-05-20 05:58:53 51°12.678 2°33.199 -999 0.068964 0.367942 -0.687152
2009-05-20 05:59:52 51°12.695 2°33.25 -999 0.068964 0.36798 -0.687152
2009-05-20 06:00:53 51°12.71 2°33.306 -999 0.068964 0.368036 -0.687152
2009-05-20 06:01:52 51°12.718 2°33.362 -999 0.068964 0.368106 -0.687152
2009-05-20 06:02:53 51°12.723 2°33.421 -999 0.068964 0.368169 -0.687152
2009-05-20 06:03:52 51°12.733 2°33.483 -999 0.068964 0.368251 -0.687152
2009-05-20 06:04:53 51°12.771 2°33.512 -999 0.068964 0.368396 -0.687152
2009-05-20 06:05:53 51°12.803 2°33.441 -999 0.068964 0.368408 -0.687152
2009-05-20 06:06:53 51°12.784 2°33.367 -999 0.068861 0.367873 -0.687152
2009-05-20 06:07:52 51°12.753 2°33.324 -999 0.068861 0.367961 -0.687152
2009-05-20 06:08:52 51°12.723 2°33.298 -999 0.068861 0.36803 -0.687152
2009-05-20 06:09:53 51°12.696 2°33.282 -999 0.068861 0.368087 -0.721976
2009-05-20 06:10:52 51°12.676 2°33.269 -999 0.068861 0.36815 -0.687152
2009-05-20 06:11:53 51°12.662 2°33.256 -999 0.068861 0.368201 -0.687152
2009-05-20 06:12:53 51°12.656 2°33.244 -999 0.068861 0.368264 -0.687152
2009-05-20 06:13:53 51°12.658 2°33.221 -999 0.068861 0.368308 -0.687152
2009-05-20 06:14:53 51°12.679 2°33.205 -999 0.068861 0.368365 -0.687152
2009-05-20 06:15:52 51°12.717 2°33.237 -999 0.068861 0.368435 -0.687152
2009-05-20 06:16:53 51°12.732 2°33.274 -999 0.068861 0.368479 -0.721976
2009-05-20 06:17:54 51°12.724 2°33.28 -999 0.068758 0.367968 -0.687152
2009-05-20 06:18:55 51°12.707 2°33.266 -999 0.068758 0.368037 -0.721976
2009-05-20 06:19:54 51°12.705 2°33.276 -999 0.068758 0.368101 -0.687152
2009-05-20 06:20:53 51°12.703 2°33.288 -999 0.068758 0.368158 -0.721976
2009-05-20 06:21:53 51°12.702 2°33.303 -999 0.068758 0.368233 -0.687152
2009-05-20 06:22:52 51°12.702 2°33.318 -999 0.068758 0.36829 -0.721976
2009-05-20 06:23:52 51°12.706 2°33.343 -999 0.068758 0.368366 -0.721976
2009-05-20 06:24:52 51°12.708 2°33.371 -999 2.144857 14.071237 2.447013
2009-05-20 06:25:53 51°12.719 2°33.431 -999 4.124977 34.357072 1.750532
2009-05-20 06:26:52 51°12.732 2°33.484 -999 4.086807 34.324098 1.47194
2009-05-20 06:27:53 51°12.742 2°33.533 -999 4.073739 34.307384 1.367467
2009-05-20 06:28:53 51°12.749 2°33.575 -999 4.005388 33.728541 1.228171
2009-05-20 06:29:53 51°12.753 2°33.612 -999 4.072599 34.390885 1.088875
2009-05-20 06:30:52 51°12.757 2°33.646 -999 4.070318 34.399341 1.088875
2009-05-20 06:31:52 51°12.762 2°33.686 -999 4.063057 34.343879 1.054051
2009-05-20 06:32:53 51°12.777 2°33.734 -999 4.052788 34.254637 1.019227
2009-05-20 06:33:52 51°12.814 2°33.758 -999 4.066792 34.399911 1.019227
2009-05-20 06:34:53 51°12.848 2°33.714 -999 4.056938 34.315298 0.984403
2009-05-20 06:35:52 51°12.856 2°33.622 -999 4.059842 34.364281 0.914755
2009-05-20 06:36:53 51°12.871 2°33.456 -999 4.065859 34.425782 0.914755
2009-05-20 06:37:53 51°12.873 2°33.356 -999 4.060569 34.389643 1.054051
2009-05-20 06:38:53 51°12.876 2°33.317 -999 4.055797 34.349915 1.193347
2009-05-20 06:39:53 51°12.881 2°33.294 -999 4.059324 34.387126 1.054051
2009-05-20 06:40:53 51°12.887 2°33.282 -999 4.06088 34.408019 1.019227
2009-05-20 06:41:53 51°12.893 2°33.276 -999 4.060776 34.413987 1.019227
2009-05-20 06:42:52 51°12.898 2°33.276 -999 4.055279 34.370452 0.984403
2009-05-20 06:43:53 51°12.906 2°33.281 -999 4.054138 34.366598 0.949579
2009-05-20 06:44:53 51°12.914 2°33.289 -999 4.05725 34.399916 0.949579
2009-05-20 06:45:53 51°12.921 2°33.299 -999 4.059947 34.429317 0.949579
2009-05-20 06:46:53 51°12.929 2°33.312 -999 4.059013 34.42125 0.914755
2009-05-20 06:47:52 51°12.937 2°33.327 -999 4.057873 34.412764 0.879931
2009-05-20 06:48:53 51°12.946 2°33.344 -999 4.05974 34.434313 0.810283
2009-05-20 06:49:52 51°12.955 2°33.361 -999 4.059532 34.432348 0.810283
2009-05-20 06:50:53 51°12.966 2°33.38 -999 4.059636 34.431784 0.775459
2009-05-20 06:51:53 51°12.975 2°33.401 -999 4.059636 34.429463 0.775459
2009-05-20 06:52:52 51°12.984 2°33.422 -999 4.059428 34.432139 0.70581
2009-05-20 06:53:53 51°12.995 2°33.444 -999 4.05725 34.414601 0.670986
2009-05-20 06:54:53 51°13.005 2°33.466 -999 4.05891 34.432642 0.670986
2009-05-20 06:55:53 51°13.016 2°33.489 -999 4.059947 34.445565 0.601338
2009-05-20 06:56:53 51°13.026 2°33.513 -999 4.05974 34.445147 0.601338
2009-05-20 06:57:53 51°13.037 2°33.538 -999 4.059636 34.446487 0.566514
2009-05-20 06:58:53 51°13.047 2°33.563 -999 4.058702 34.432224 0.601338
2009-05-20 06:59:53 51°13.058 2°33.589 -999 4.060258 34.446965 0.566514
2009-05-20 07:00:52 51°13.069 2°33.615 -999 4.059947 34.444017 0.566514
2009-05-20 07:01:53 51°13.082 2°33.62 -999 4.059636 34.44339 0.601338
2009-05-20 07:02:53 51°13.075 2°33.595 -999 4.054139 34.392856 0.601338
2009-05-20 07:03:53 51°13.047 2°33.542 -999 4.059636 34.444165 0.636162
2009-05-20 07:04:53 51°13.014 2°33.469 -999 4.057769 34.431118 0.70581
2009-05-20 07:05:53 51°12.971 2°33.438 -999 4.058599 34.441303 0.70581
2009-05-20 07:06:53 51°12.933 2°33.438 -999 4.059325 34.452056 0.740634
2009-05-20 07:07:53 51°12.912 2°33.454 -999 4.059221 34.451073 0.775459
2009-05-20 07:08:53 51°12.914 2°33.478 -999 4.059221 34.450299 0.775459
2009-05-20 07:09:52 51°12.92 2°33.506 -999 4.057873 34.43752 0.740634
2009-05-20 07:10:53 51°12.93 2°33.536 -999 4.058806 34.451014 0.810283
2009-05-20 07:11:53 51°12.944 2°33.565 -999 4.058599 34.450597 0.845107
2009-05-20 07:12:53 51°12.959 2°33.593 -999 4.057354 34.447319 0.845107
2009-05-20 07:13:53 51°12.974 2°33.619 -999 4.055695 34.433134 0.879931
2009-05-20 07:14:53 51°12.99 2°33.643 -999 4.055073 34.431881 0.879931
2009-05-20 07:15:53 51°13.002 2°33.667 -999 4.055488 34.439689 0.845107
2009-05-20 07:16:52 51°12.993 2°33.723 -999 4.051961 34.405475 0.810283
2009-05-20 07:17:53 51°12.96 2°33.749 -999 4.050716 34.387484 0.879931
2009-05-20 07:18:53 51°12.943 2°33.722 -999 4.053413 34.414598 0.845107
2009-05-20 07:19:53 51°12.939 2°33.666 -999 4.057458 34.449852 0.879931
2009-05-20 07:20:53 51°12.915 2°33.561 -999 4.05808 34.450329 0.914755
2009-05-20 07:21:53 51°12.88 2°33.444 -999 4.057769 34.451253 0.914755
2009-05-20 07:22:53 51°12.862 2°33.388 -999 4.056525 34.435579 0.984403
2009-05-20 07:23:53 51°12.858 2°33.362 -999 4.05808 34.449554 1.019227
2009-05-20 07:24:53 51°12.858 2°33.35 -999 4.057873 34.449912 1.054051
2009-05-20 07:25:53 51°12.861 2°33.35 -999 4.057562 34.449286 1.054051
2009-05-20 07:26:53 51°12.866 2°33.357 -999 4.057666 34.44872 1.019227
2009-05-20 07:27:53 51°12.873 2°33.367 -999 4.057458 34.449078 1.019227
2009-05-20 07:28:53 51°12.882 2°33.381 -999 4.057458 34.449078 1.019227
2009-05-20 07:29:53 51°12.892 2°33.399 -999 4.056836 34.443177 1.019227
2009-05-20 07:30:53 51°12.903 2°33.419 -999 4.057354 34.448869 0.984403
2009-05-20 07:31:53 51°12.914 2°33.44 -999 4.055072 34.424911 0.949579
2009-05-20 07:32:53 51°12.926 2°33.463 -999 4.053724 34.413677 0.914755
2009-05-20 07:33:53 51°12.939 2°33.486 -999 4.054865 34.422945 0.914755
2009-05-20 07:34:53 51°12.952 2°33.51 -999 4.053724 34.408259 0.845107
2009-05-20 07:35:53 51°12.965 2°33.535 -999 4.057666 34.445621 0.845107
2009-05-20 07:36:53 51°12.978 2°33.561 -999 4.057562 34.444638 0.810283
2009-05-20 07:37:53 51°12.991 2°33.588 -999 4.057458 34.44288 0.775459
2009-05-20 07:38:53 51°13.005 2°33.616 -999 4.05808 34.443357 0.810283
2009-05-20 07:39:53 51°13.019 2°33.644 -999 4.058703 34.446933 0.740634
2009-05-20 07:40:53 51°13.026 2°33.64 -999 4.059014 34.444461 0.775459
2009-05-20 07:41:53 51°12.984 2°33.631 -999 4.059117 34.443121 0.740634
2009-05-20 07:42:53 51°12.932 2°33.609 -999 4.059844 34.449227 0.810283
2009-05-20 07:43:53 51°12.909 2°33.59 -999 3.944826 33.362688 0.879931
2009-05-20 07:44:53 51°12.897 2°33.586 -999 4.059844 34.449227 0.949579
2009-05-20 07:45:53 51°12.899 2°33.603 -999 4.060051 34.449644 0.949579
2009-05-20 07:46:53 51°12.904 2°33.622 -999 4.059636 34.450359 0.914755
2009-05-20 07:47:53 51°12.908 2°33.641 -999 4.059636 34.450359 0.914755
2009-05-20 07:48:53 51°12.909 2°33.636 -999 4.059636 34.44881 0.949579
2009-05-20 07:49:53 51°12.912 2°33.632 -999 4.059221 34.447976 0.949579
2009-05-20 07:50:53 51°12.913 2°33.635 -999 4.059118 34.448541 0.914755
2009-05-20 07:51:53 51°12.912 2°33.636 -999 4.05891 34.448124 0.914755
2009-05-20 07:52:53 51°12.91 2°33.636 -999 4.059014 34.448333 0.914755
2009-05-20 07:53:53 51°12.91 2°33.638 -999 4.058703 34.450031 0.845107
2009-05-20 07:54:52 51°12.91 2°33.637 -999 4.058806 34.44869 0.845107
2009-05-20 07:55:53 51°12.909 2°33.636 -999 4.059221 34.44875 0.810283
2009-05-20 07:56:52 51°12.91 2°33.638 -999 4.058599 34.444401 0.810283
2009-05-20 07:57:53 51°12.909 2°33.638 -999 4.058599 34.445175 0.845107
2009-05-20 07:58:52 51°12.909 2°33.638 -999 4.058703 34.446158 0.845107
2009-05-20 07:59:53 51°12.909 2°33.637 -999 4.058184 34.44434 0.879931
2009-05-20 08:00:53 51°12.91 2°33.637 -999 4.057873 34.448362 0.914755
2009-05-20 08:01:53 51°12.909 2°33.637 -999 4.057666 34.451044 0.949579
2009-05-20 08:02:53 51°12.909 2°33.637 -999 4.057147 34.451552 0.984403
2009-05-20 08:03:52 51°12.909 2°33.637 -999 4.056628 34.446634 1.019227
2009-05-20 08:04:53 51°12.909 2°33.637 -999 4.056421 34.452418 1.054051
2009-05-20 08:05:53 51°12.91 2°33.638 -999 4.056214 34.452001 1.123699
2009-05-20 08:06:53 51°12.91 2°33.638 -999 4.05611 34.451792 1.123699
2009-05-20 08:07:53 51°12.909 2°33.637 -999 4.055799 34.451167 1.123699
2009-05-20 08:08:52 51°12.909 2°33.638 -999 4.055591 34.451525 1.088875
2009-05-20 08:09:53 51°12.909 2°33.637 -999 4.055799 34.451167 1.054051
2009-05-20 08:10:53 51°12.909 2°33.637 -999 4.056006 34.451584 1.019227
2009-05-20 08:11:53 51°12.909 2°33.637 -999 4.05611 34.451017 0.984403
2009-05-20 08:12:53 51°12.908 2°33.638 -999 4.055799 34.448841 0.984403
2009-05-20 08:13:53 51°12.908 2°33.638 -999 4.056006 34.450033 0.949579
2009-05-20 08:14:53 51°12.908 2°33.638 -999 4.056006 34.448483 0.914755
2009-05-20 08:15:53 51°12.908 2°33.638 -999 4.055903 34.449825 0.949579
2009-05-20 08:16:53 51°12.908 2°33.639 -999 4.056214 34.4489 0.914755
2009-05-20 08:17:52 51°12.908 2°33.639 -999 4.056317 34.448333 0.879931
2009-05-20 08:18:53 51°12.908 2°33.639 -999 4.056732 34.446843 0.845107
2009-05-20 08:19:53 51°12.908 2°33.638 -999 4.056836 34.447051 0.845107
2009-05-20 08:20:53 51°12.907 2°33.639 -999 4.057043 34.446693 0.845107
2009-05-20 08:21:53 51°12.906 2°33.639 -999 4.057043 34.446693 0.810283
2009-05-20 08:22:53 51°12.906 2°33.639 -999 4.057354 34.444995 0.845107
2009-05-20 08:23:53 51°12.906 2°33.639 -999 4.056628 34.437337 0.845107
2009-05-20 08:24:52 51°12.906 2°33.639 -999 4.056836 34.438529 0.845107
2009-05-20 08:25:53 51°12.907 2°33.639 -999 4.056628 34.438886 0.879931
2009-05-20 08:26:53 51°12.907 2°33.639 -999 4.056939 34.437964 0.845107
2009-05-20 08:27:53 51°12.907 2°33.64 -999 4.057562 34.444638 0.845107
2009-05-20 08:28:53 51°12.907 2°33.639 -999 4.057666 34.444846 0.845107
2009-05-20 08:29:53 51°12.907 2°33.639 -999 4.057666 34.444846 0.879931
2009-05-20 08:30:53 51°12.907 2°33.64 -999 4.057769 34.44428 0.879931
2009-05-20 08:31:53 51°12.908 2°33.639 -999 4.057769 34.443506 0.879931
2009-05-20 08:32:53 51°12.908 2°33.639 -999 4.057977 34.443149 0.845107
2009-05-20 08:33:53 51°12.908 2°33.639 -999 4.057873 34.44294 0.845107
2009-05-20 08:34:53 51°12.909 2°33.638 -999 4.058184 34.442792 0.845107
2009-05-20 08:35:53 51°12.908 2°33.638 -999 4.05808 34.441808 0.879931
2009-05-20 08:36:53 51°12.908 2°33.638 -999 4.05808 34.441808 0.879931
2009-05-20 08:37:53 51°12.908 2°33.638 -999 4.057977 34.442374 0.879931
2009-05-20 08:38:53 51°12.908 2°33.639 -999 4.057977 34.442374 0.845107
2009-05-20 08:39:53 51°12.908 2°33.639 -999 4.057873 34.44294 0.810283
2009-05-20 08:40:53 51°12.908 2°33.639 -999 4.057458 34.443654 0.810283
2009-05-20 08:41:53 51°12.908 2°33.639 -999 4.057562 34.442314 0.810283
2009-05-20 08:42:53 51°12.908 2°33.639 -999 4.057354 34.441896 0.775459
2009-05-20 08:43:53 51°12.908 2°33.639 -999 4.057873 34.440617 0.775459
2009-05-20 08:44:53 51°12.908 2°33.638 -999 4.057769 34.442731 0.810283
2009-05-20 08:45:53 51°12.909 2°33.638 -999 4.057251 34.444786 0.810283
2009-05-20 08:46:53 51°12.909 2°33.637 -999 4.05694 34.443386 0.775459
2009-05-20 08:47:53 51°12.908 2°33.638 -999 4.056836 34.444727 0.810283
2009-05-20 08:48:53 51°12.908 2°33.638 -999 4.056836 34.445501 0.810283
2009-05-20 08:49:53 51°12.908 2°33.639 -999 4.056732 34.446068 0.775459
2009-05-20 08:50:53 51°12.908 2°33.639 -999 4.057043 34.445144 0.740634
2009-05-20 08:51:53 51°12.908 2°33.638 -999 4.057043 34.445144 0.775459
2009-05-20 08:52:53 51°12.909 2°33.638 -999 4.057043 34.445919 0.775459
2009-05-20 08:53:53 51°12.908 2°33.638 -999 4.05694 34.446485 0.775459
2009-05-20 08:54:53 51°12.908 2°33.637 -999 4.056525 34.4472 0.775459
2009-05-20 08:55:53 51°12.908 2°33.637 -999 4.056836 34.446276 0.740634
2009-05-20 08:56:52 51°12.908 2°33.638 -999 4.057043 34.447468 0.740634
2009-05-20 08:57:53 51°12.907 2°33.638 -999 4.057562 34.445412 0.740634
2009-05-20 08:58:53 51°12.908 2°33.638 -999 4.057458 34.446753 0.740634
2009-05-20 08:59:53 51°12.908 2°33.636 -999 4.057458 34.447528 0.70581
2009-05-20 09:00:52 51°12.909 2°33.636 -999 4.057354 34.447319 0.740634
2009-05-20 09:01:52 51°12.908 2°33.637 -999 4.057354 34.448869 0.775459
2009-05-20 09:02:53 51°12.907 2°33.638 -999 4.05694 34.44881 0.740634
2009-05-20 09:03:53 51°12.906 2°33.637 -999 4.056836 34.448601 0.740634
2009-05-20 09:04:53 51°12.9 2°33.639 -999 4.056629 34.449734 0.740634
2009-05-20 09:05:53 51°12.89 2°33.638 -999 4.056732 34.449168 0.775459
2009-05-20 09:06:53 51°12.882 2°33.631 -999 4.056421 34.450867 0.775459
2009-05-20 09:07:53 51°12.881 2°33.628 -999 4.05611 34.451792 0.740634
2009-05-20 09:08:53 51°12.883 2°33.629 -999 4.056006 34.451584 0.775459
2009-05-20 09:09:53 51°12.887 2°33.633 -999 4.056214 34.451226 0.810283
2009-05-20 09:10:53 51°12.888 2°33.635 -999 4.055903 34.452926 0.810283
2009-05-20 09:11:53 51°12.886 2°33.637 -999 4.056006 34.452359 0.845107
2009-05-20 09:12:53 51°12.882 2°33.631 -999 4.055384 34.453435 0.810283
2009-05-20 09:13:53 51°12.882 2°33.629 -999 4.054865 34.453944 0.810283
2009-05-20 09:14:53 51°12.884 2°33.632 -999 4.054554 34.45487 0.845107
2009-05-20 09:15:53 51°12.889 2°33.636 -999 4.054347 34.453678 0.845107
2009-05-20 09:16:53 51°12.894 2°33.64 -999 4.054554 34.453319 0.845107
2009-05-20 09:17:53 51°12.9 2°33.639 -999 4.05414 34.454813 0.845107
2009-05-20 09:18:53 51°12.904 2°33.635 -999 4.053828 34.454964 0.879931
2009-05-20 09:19:53 51°12.904 2°33.632 -999 4.054036 34.454604 0.879931
2009-05-20 09:20:53 51°12.905 2°33.632 -999 4.053725 34.454755 0.879931
2009-05-20 09:21:53 51°12.905 2°33.634 -999 4.053828 34.45574 0.810283
2009-05-20 09:22:53 51°12.904 2°33.636 -999 4.053102 34.45661 0.845107
2009-05-20 09:23:53 51°12.902 2°33.636 -999 4.052999 34.456401 0.810283
2009-05-20 09:24:53 51°12.901 2°33.636 -999 4.05248 34.456136 0.810283
2009-05-20 09:25:53 51°12.901 2°33.636 -999 4.052584 34.455568 0.810283
2009-05-20 09:26:53 51°12.902 2°33.637 -999 4.052688 34.455776 0.775459
2009-05-20 09:27:53 51°12.903 2°33.636 -999 4.052791 34.455984 0.775459
2009-05-20 09:28:53 51°12.903 2°33.634 -999 4.05248 34.456912 0.775459
2009-05-20 09:29:53 51°12.904 2°33.633 -999 4.052584 34.456344 0.740634
2009-05-20 09:30:53 51°12.904 2°33.632 -999 4.052895 34.456969 0.775459
2009-05-20 09:31:53 51°12.904 2°33.633 -999 4.053102 34.457386 0.775459
2009-05-20 09:32:53 51°12.904 2°33.634 -999 4.052688 34.457329 0.775459
2009-05-20 09:33:53 51°12.903 2°33.635 -999 4.052376 34.45748 0.740634
2009-05-20 09:34:53 51°12.903 2°33.635 -999 4.052584 34.456344 0.775459
2009-05-20 09:35:53 51°12.903 2°33.635 -999 4.052376 34.45748 0.775459
2009-05-20 09:36:53 51°12.904 2°33.634 -999 4.052273 34.458049 0.740634
2009-05-20 09:37:53 51°12.906 2°33.631 -999 4.052584 34.457121 0.670986
2009-05-20 09:38:53 51°12.905 2°33.63 -999 4.052584 34.45945 0.70581
2009-05-20 09:39:53 51°12.906 2°33.63 -999 4.052584 34.45945 0.70581
2009-05-20 09:40:53 51°12.906 2°33.63 -999 4.052584 34.458674 0.70581
2009-05-20 09:41:53 51°12.906 2°33.631 -999 4.05248 34.458465 0.670986
2009-05-20 09:42:53 51°12.905 2°33.631 -999 4.052688 34.458105 0.70581
2009-05-20 09:43:53 51°12.905 2°33.632 -999 4.052584 34.45945 0.70581
2009-05-20 09:44:53 51°12.904 2°33.633 -999 4.052791 34.45909 0.670986
2009-05-20 09:45:52 51°12.904 2°33.634 -999 4.053206 34.458371 0.636162
2009-05-20 09:46:53 51°12.904 2°33.634 -999 4.053102 34.459715 0.670986
2009-05-20 09:47:53 51°12.904 2°33.633 -999 4.053206 34.458371 0.636162
2009-05-20 09:48:53 51°12.906 2°33.63 -999 4.053206 34.458371 0.636162
2009-05-20 09:49:53 51°12.905 2°33.631 -999 4.052688 34.458882 0.670986
2009-05-20 09:50:53 51°12.905 2°33.63 -999 4.052791 34.45909 0.670986
2009-05-20 09:51:53 51°12.905 2°33.631 -999 4.052999 34.460283 0.636162
2009-05-20 09:52:53 51°12.905 2°33.632 -999 4.053103 34.460492 0.601338
2009-05-20 09:53:52 51°12.905 2°33.632 -999 4.053206 34.4607 0.636162
2009-05-20 09:54:53 51°12.905 2°33.631 -999 4.053932 34.460605 0.601338
2009-05-20 09:55:53 51°12.905 2°33.631 -999 4.054658 34.458959 0.566514
2009-05-20 09:56:53 51°12.905 2°33.631 -999 4.055488 34.460625 0.566514
2009-05-20 09:57:52 51°12.905 2°33.632 -999 4.055592 34.461609 0.53169
2009-05-20 09:58:53 51°12.905 2°33.632 -999 4.055695 34.461042 0.566514
2009-05-20 09:59:52 51°12.905 2°33.632 -999 4.055799 34.460474 0.566514
2009-05-20 10:00:53 51°12.905 2°33.631 -999 4.055488 34.460625 0.566514
2009-05-20 10:01:53 51°12.906 2°33.63 -999 4.055592 34.460834 0.566514
2009-05-20 10:02:53 51°12.906 2°33.629 -999 4.055384 34.460417 0.601338
2009-05-20 10:03:52 51°12.906 2°33.63 -999 4.055592 34.460058 0.566514
2009-05-20 10:04:53 51°12.906 2°33.631 -999 4.05611 34.460323 0.566514
2009-05-20 10:05:53 51°12.906 2°33.632 -999 4.056421 34.460948 0.53169
2009-05-20 10:06:53 51°12.906 2°33.632 -999 4.056214 34.461308 0.566514
2009-05-20 10:07:52 51°12.906 2°33.632 -999 4.05611 34.461099 0.566514
2009-05-20 10:08:53 51°12.906 2°33.631 -999 4.05611 34.461875 0.566514
2009-05-20 10:09:53 51°12.906 2°33.631 -999 4.055695 34.461042 0.566514
2009-05-20 10:10:53 51°12.906 2°33.63 -999 4.055903 34.459907 0.601338
2009-05-20 10:11:52 51°12.906 2°33.63 -999 4.055903 34.462234 0.566514
2009-05-20 10:12:52 51°12.906 2°33.63 -999 4.056214 34.461308 0.566514
2009-05-20 10:13:53 51°12.906 2°33.63 -999 4.056525 34.460381 0.566514
2009-05-20 10:14:52 51°12.906 2°33.63 -999 4.056214 34.461308 0.566514
2009-05-20 10:15:53 51°12.905 2°33.631 -999 4.05694 34.461214 0.566514
2009-05-20 10:16:52 51°12.905 2°33.631 -999 4.05694 34.46199 0.566514
2009-05-20 10:17:53 51°12.905 2°33.63 -999 4.057147 34.460855 0.566514
2009-05-20 10:18:52 51°12.905 2°33.63 -999 4.057044 34.460647 0.566514
2009-05-20 10:19:53 51°12.905 2°33.63 -999 4.057251 34.461839 0.601338
2009-05-20 10:20:53 51°12.906 2°33.63 -999 4.057147 34.461631 0.566514
2009-05-20 10:21:53 51°12.906 2°33.63 -999 4.056836 34.461006 0.566514
2009-05-20 10:22:53 51°12.906 2°33.63 -999 4.056836 34.46023 0.601338
2009-05-20 10:23:53 51°12.905 2°33.631 -999 4.05694 34.460439 0.566514
2009-05-20 10:24:53 51°12.905 2°33.631 -999 4.05694 34.461214 0.601338
2009-05-20 10:25:52 51°12.905 2°33.632 -999 4.056732 34.460022 0.601338
2009-05-20 10:26:53 51°12.906 2°33.631 -999 4.056732 34.459247 0.566514
2009-05-20 10:27:53 51°12.906 2°33.63 -999 4.057977 34.460971 0.53169
2009-05-20 10:28:53 51°12.906 2°33.629 -999 4.058495 34.460462 0.53169
2009-05-20 10:29:53 51°12.906 2°33.628 -999 4.059014 34.460729 0.566514
2009-05-20 10:30:53 51°12.906 2°33.628 -999 4.059636 34.461204 0.53169
2009-05-20 10:31:53 51°12.906 2°33.628 -999 4.060051 34.461262 0.53169
2009-05-20 10:32:53 51°12.906 2°33.628 -999 4.060259 34.461679 0.566514
2009-05-20 10:33:52 51°12.906 2°33.628 -999 4.060051 34.460488 0.566514
2009-05-20 10:34:53 51°12.906 2°33.628 -999 4.060155 34.461471 0.566514
2009-05-20 10:35:52 51°12.906 2°33.627 -999 4.060362 34.461113 0.566514
2009-05-20 10:36:53 51°12.906 2°33.627 -999 4.060155 34.461471 0.566514
2009-05-20 10:37:53 51°12.906 2°33.628 -999 4.060155 34.460696 0.566514
2009-05-20 10:38:53 51°12.906 2°33.629 -999 4.060466 34.460546 0.566514
2009-05-20 10:39:53 51°12.906 2°33.629 -999 4.060673 34.460188 0.53169
2009-05-20 10:40:53 51°12.906 2°33.63 -999 4.060466 34.460546 0.566514
2009-05-20 10:41:53 51°12.906 2°33.63 -999 4.060881 34.460605 0.566514
2009-05-20 10:42:53 51°12.906 2°33.629 -999 4.059014 34.449882 0.566514
2009-05-20 10:43:53 51°12.906 2°33.629 -999 4.058599 34.447498 0.566514
2009-05-20 10:44:53 51°12.906 2°33.629 -999 4.060362 34.459563 0.53169
2009-05-20 10:45:53 51°12.906 2°33.629 -999 4.060777 34.459622 0.566514
2009-05-20 10:46:52 51°12.906 2°33.629 -999 4.061088 34.459473 0.53169
2009-05-20 10:47:52 51°12.906 2°33.628 -999 4.060985 34.460039 0.566514
2009-05-20 10:48:53 51°12.907 2°33.628 -999 4.060985 34.459264 0.601338
2009-05-20 10:49:53 51°12.907 2°33.628 -999 4.061192 34.458907 0.566514
2009-05-20 10:50:53 51°12.906 2°33.629 -999 4.061607 34.458192 0.566514
2009-05-20 10:51:53 51°12.907 2°33.629 -999 4.06171 34.4584 0.566514
2009-05-20 10:52:52 51°12.907 2°33.629 -999 4.061399 34.458549 0.566514
2009-05-20 10:53:53 51°12.907 2°33.628 -999 4.062644 34.456405 0.566514
2009-05-20 10:54:53 51°12.907 2°33.628 -999 4.062955 34.457805 0.53169
2009-05-20 10:55:52 51°12.906 2°33.628 -999 4.063681 34.456169 0.53169
2009-05-20 10:56:53 51°12.906 2°33.627 -999 4.065444 34.455846 0.496866
2009-05-20 10:57:53 51°12.906 2°33.627 -999 4.065755 34.457244 0.53169
2009-05-20 10:58:53 51°12.906 2°33.627 -999 4.064822 34.457688 0.53169
2009-05-20 10:59:53 51°12.906 2°33.628 -999 4.065029 34.457332 0.53169
2009-05-20 11:00:53 51°12.906 2°33.628 -999 4.06534 34.45641 0.496866
2009-05-20 11:01:53 51°12.906 2°33.628 -999 4.065963 34.456115 0.53169
2009-05-20 11:02:53 51°12.905 2°33.627 -999 4.066274 34.456741 0.496866
2009-05-20 11:03:53 51°12.906 2°33.626 -999 4.066378 34.456176 0.496866
2009-05-20 11:04:52 51°12.906 2°33.626 -999 4.066274 34.456741 0.53169
2009-05-20 11:05:53 51°12.906 2°33.626 -999 4.066066 34.45555 0.53169
2009-05-20 11:06:52 51°12.905 2°33.623 -999 4.065963 34.455342 0.53169
2009-05-20 11:07:53 51°12.901 2°33.617 -999 4.06534 34.455637 0.601338
2009-05-20 11:08:53 51°12.898 2°33.608 -999 4.066066 34.454004 0.566514
2009-05-20 11:09:53 51°12.895 2°33.593 -999 4.067103 34.453771 0.496866
2009-05-20 11:10:53 51°12.896 2°33.582 -999 4.067622 34.454041 0.496866
2009-05-20 11:11:53 51°12.9 2°33.572 -999 4.066896 34.455673 0.53169
2009-05-20 11:12:53 51°12.903 2°33.566 -999 4.066585 34.455047 0.53169
2009-05-20 11:13:52 51°12.907 2°33.56 -999 4.065755 34.455698 0.601338
2009-05-20 11:14:53 51°12.912 2°33.555 -999 4.06534 34.454091 0.566514
2009-05-20 11:15:53 51°12.918 2°33.552 -999 4.066377 34.453084 0.566514
2009-05-20 11:16:53 51°12.924 2°33.549 -999 4.067103 34.453771 0.53169
2009-05-20 11:17:53 51°12.931 2°33.547 -999 4.067311 34.453416 0.53169
2009-05-20 11:18:53 51°12.938 2°33.546 -999 4.069178 34.453308 0.53169
2009-05-20 11:19:53 51°12.946 2°33.545 -999 4.069281 34.455061 0.496866
2009-05-20 11:20:53 51°12.954 2°33.544 -999 4.069385 34.452953 0.496866
2009-05-20 11:21:53 51°12.961 2°33.543 -999 4.069593 34.454914 0.53169
2009-05-20 11:22:53 51°12.969 2°33.543 -999 4.069593 34.45337 0.53169
2009-05-20 11:23:53 51°12.976 2°33.543 -999 4.069489 34.453934 0.53169
2009-05-20 11:24:53 51°12.984 2°33.543 -999 4.069489 34.453161 0.53169
2009-05-20 11:25:53 51°12.99 2°33.543 -999 4.069696 34.454351 0.566514
2009-05-20 11:26:53 51°12.997 2°33.543 -999 4.070111 34.452869 0.53169
2009-05-20 11:27:53 51°13.003 2°33.543 -999 4.070422 34.454267 0.566514
2009-05-20 11:28:53 51°13.009 2°33.542 -999 4.070526 34.453703 0.601338
2009-05-20 11:29:53 51°13.014 2°33.541 -999 4.071148 34.453411 0.566514
2009-05-20 11:30:53 51°13.02 2°33.54 -999 4.071148 34.453411 0.601338
2009-05-20 11:31:53 51°13.026 2°33.539 -999 4.071563 34.454246 0.636162
2009-05-20 11:32:53 51°13.031 2°33.538 -999 4.071874 34.454872 0.601338
2009-05-20 11:33:53 51°13.036 2°33.536 -999 4.072185 34.454726 0.670986
2009-05-20 11:34:53 51°13.041 2°33.535 -999 4.072393 34.454371 0.670986
2009-05-20 11:35:53 51°13.047 2°33.533 -999 4.072808 34.453663 0.636162
2009-05-20 11:36:53 51°13.052 2°33.531 -999 4.073534 34.455123 0.636162
2009-05-20 11:37:53 51°13.057 2°33.529 -999 4.073949 34.453644 0.636162
2009-05-20 11:38:53 51°13.062 2°33.525 -999 4.075089 34.454397 0.601338
2009-05-20 11:39:53 51°13.064 2°33.468 -999 4.076438 34.454027 0.70581
2009-05-20 11:40:53 51°12.961 2°33.424 -999 4.077164 34.455488 0.70581
2009-05-20 11:41:53 51°12.867 2°33.391 -999 4.077164 34.457028 0.70581
2009-05-20 11:42:53 51°12.822 2°33.356 -999 4.07426 34.456583 0.740634
2009-05-20 11:43:53 51°12.803 2°33.331 -999 4.074052 34.452311 0.740634
2009-05-20 11:44:53 51°12.807 2°33.337 -999 4.074156 34.45329 0.670986
2009-05-20 11:45:53 51°12.812 2°33.347 -999 4.073845 34.452665 0.70581
2009-05-20 11:46:54 51°12.816 2°33.351 -999 4.072082 34.452974 0.810283
2009-05-20 11:47:53 51°12.819 2°33.352 -999 4.07063 34.451596 0.845107
2009-05-20 11:48:53 51°12.82 2°33.351 -999 4.068867 34.450365 0.879931
2009-05-20 11:49:53 51°12.821 2°33.348 -999 4.068141 34.449677 0.914755
2009-05-20 11:50:53 51°12.821 2°33.342 -999 4.068452 34.447214 0.879931
2009-05-20 11:51:53 51°12.821 2°33.334 -999 4.069385 34.447549 0.845107
2009-05-20 11:52:53 51°12.821 2°33.326 -999 4.070318 34.445568 0.775459
2009-05-20 11:53:53 51°12.822 2°33.316 -999 4.071044 34.44703 0.775459
2009-05-20 11:54:53 51°12.824 2°33.306 -999 4.072185 34.446241 0.740634
2009-05-20 11:55:53 51°12.826 2°33.296 -999 4.073119 34.445807 0.70581
2009-05-20 11:56:53 51°12.828 2°33.286 -999 4.074571 34.444876 0.636162
2009-05-20 11:57:53 51°12.831 2°33.277 -999 4.075089 34.446691 0.636162
2009-05-20 11:58:53 51°12.834 2°33.268 -999 4.075504 34.445985 0.636162
2009-05-20 11:59:53 51°12.837 2°33.26 -999 4.07706 34.443727 0.566514
2009-05-20 12:00:54 51°12.841 2°33.251 -999 4.079238 34.445034 0.496866
2009-05-20 12:01:52 51°12.844 2°33.243 -999 4.08069 34.444882 0.496866
2009-05-20 12:02:53 51°12.847 2°33.234 -999 4.081935 34.44585 0.496866
2009-05-20 12:03:53 51°12.85 2°33.225 -999 4.083283 34.444723 0.496866
2009-05-20 12:04:53 51°12.853 2°33.217 -999 4.08515 34.444642 0.462042
2009-05-20 12:05:53 51°12.857 2°33.208 -999 4.086083 34.444987 0.462042
2009-05-20 12:06:53 51°12.86 2°33.199 -999 4.086602 34.446032 0.496866
2009-05-20 12:07:53 51°12.863 2°33.191 -999 4.087017 34.446867 0.496866
2009-05-20 12:08:53 51°12.865 2°33.182 -999 4.087535 34.446377 0.496866
2009-05-20 12:09:53 51°12.867 2°33.173 -999 4.087639 34.445818 0.496866
2009-05-20 12:10:53 51°12.868 2°33.165 -999 4.087535 34.446377 0.53169
2009-05-20 12:11:53 51°12.87 2°33.156 -999 4.087639 34.445818 0.53169
2009-05-20 12:12:53 51°12.87 2°33.147 -999 4.087432 34.446168 0.566514
2009-05-20 12:13:54 51°12.871 2°33.139 -999 4.087432 34.4454 0.566514
2009-05-20 12:14:53 51°12.871 2°33.13 -999 4.087846 34.447004 0.566514
2009-05-20 12:15:53 51°12.871 2°33.122 -999 4.087846 34.447004 0.566514
2009-05-20 12:16:54 51°12.87 2°33.113 -999 4.088054 34.447421 0.601338
2009-05-20 12:17:53 51°12.87 2°33.104 -999 4.08795 34.446445 0.601338
2009-05-20 12:18:53 51°12.869 2°33.096 -999 4.08795 34.446445 0.601338
2009-05-20 12:19:53 51°12.868 2°33.087 -999 4.087639 34.447353 0.601338
2009-05-20 12:20:53 51°12.867 2°33.078 -999 4.087432 34.447703 0.601338
2009-05-20 12:21:54 51°12.865 2°33.069 -999 4.087328 34.446726 0.601338
2009-05-20 12:22:53 51°12.864 2°33.059 -999 4.088054 34.446654 0.601338
2009-05-20 12:23:53 51°12.862 2°33.049 -999 4.088572 34.446931 0.601338
2009-05-20 12:24:54 51°12.86 2°33.039 -999 4.08878 34.447349 0.601338
2009-05-20 12:25:53 51°12.857 2°33.03 -999 4.088469 34.44749 0.601338
2009-05-20 12:26:53 51°12.855 2°33.02 -999 4.088469 34.446722 0.636162
2009-05-20 12:27:54 51°12.853 2°33.01 -999 4.088987 34.447 0.636162
2009-05-20 12:28:53 51°12.849 2°32.999 -999 4.088676 34.44714 0.636162
2009-05-20 12:29:54 51°12.847 2°32.987 -999 4.089091 34.447209 0.601338
2009-05-20 12:30:53 51°12.845 2°32.963 -999 4.089091 34.447209 0.601338
2009-05-20 12:31:53 51°12.825 2°32.911 -999 4.089506 34.447277 0.566514
2009-05-20 12:32:53 51°12.776 2°32.932 -999 4.090128 34.446997 0.496866
2009-05-20 12:33:54 51°12.766 2°33.029 -999 4.094173 34.441356 0.427218
2009-05-20 12:34:53 51°12.77 2°33.145 -999 4.099878 34.442911 0.322746
2009-05-20 12:35:53 51°12.787 2°33.21 -999 4.10413 34.436978 0.322746
2009-05-20 12:36:54 51°12.801 2°33.249 -999 4.107968 34.442431 0.35757
2009-05-20 12:37:53 51°12.811 2°33.274 -999 4.10859 34.4414 0.322746
2009-05-20 12:38:54 51°12.816 2°33.293 -999 4.110457 34.439833 0.322746
2009-05-20 12:39:54 51°12.818 2°33.306 -999 4.111391 34.43867 0.287922
2009-05-20 12:40:54 51°12.817 2°33.315 -999 4.112739 34.439107 0.322746
2009-05-20 12:41:53 51°12.814 2°33.321 -999 4.112221 34.441106 0.35757
2009-05-20 12:42:53 51°12.811 2°33.324 -999 4.110457 34.439071 0.322746
2009-05-20 12:43:53 51°12.808 2°33.323 -999 4.109628 34.436635 0.322746
2009-05-20 12:44:53 51°12.804 2°33.325 -999 4.110768 34.433607 0.35757
2009-05-20 12:45:53 51°12.801 2°33.344 -999 4.112428 34.431631 0.392394
2009-05-20 12:46:54 51°12.805 2°33.372 -999 4.114399 34.432568 0.35757
2009-05-20 12:47:53 51°12.813 2°33.394 -999 4.116992 34.429445 0.35757
2009-05-20 12:48:54 51°12.819 2°33.405 -999 4.119274 34.42874 0.322746
2009-05-20 12:49:53 51°12.823 2°33.41 -999 4.119274 34.430258 0.35757
2009-05-20 12:50:54 51°12.829 2°33.429 -999 4.119377 34.427432 0.322746
2009-05-20 12:51:53 51°12.827 2°33.45 -999 4.120415 34.424975 0.392394
2009-05-20 12:52:54 51°12.823 2°33.464 -999 4.118548 34.426514 0.427218
2009-05-20 12:53:53 51°12.819 2°33.472 -999 4.118755 34.424656 0.462042
2009-05-20 12:54:53 51°12.818 2°33.476 -999 4.117095 34.426617 0.462042
2009-05-20 12:55:54 51°12.815 2°33.475 -999 4.11471 34.424835 0.496866
2009-05-20 12:56:53 51°12.813 2°33.473 -999 4.112843 34.421061 0.462042
2009-05-20 12:57:54 51°12.811 2°33.468 -999 4.112013 34.418623 0.427218
2009-05-20 12:58:53 51°12.808 2°33.461 -999 4.11305 34.41692 0.427218
2009-05-20 12:59:53 51°12.804 2°33.451 -999 4.114917 34.416137 0.427218
2009-05-20 13:00:53 51°12.799 2°33.439 -999 4.11668 34.415148 0.392394
2009-05-20 13:01:53 51°12.793 2°33.426 -999 4.118651 34.414582 0.35757
2009-05-20 13:02:53 51°12.788 2°33.412 -999 4.120311 34.41339 0.322746
2009-05-20 13:03:53 51°12.783 2°33.397 -999 4.121763 34.413297 0.322746
2009-05-20 13:04:54 51°12.778 2°33.381 -999 4.122904 34.412576 0.322746
2009-05-20 13:05:53 51°12.774 2°33.365 -999 4.123526 34.412321 0.287922
2009-05-20 13:06:54 51°12.768 2°33.347 -999 4.122904 34.412576 0.322746
2009-05-20 13:07:53 51°12.759 2°33.337 -999 4.122904 34.411061 0.287922
2009-05-20 13:08:53 51°12.728 2°33.386 -999 4.123734 34.411983 0.287922
2009-05-20 13:09:52 51°12.735 2°33.488 -999 4.121867 34.413507 0.322746
2009-05-20 13:10:53 51°12.795 2°33.653 -999 4.118859 34.412727 0.253098
2009-05-20 13:11:53 51°12.882 2°33.889 -999 4.117614 34.41476 0.496866
2009-05-20 13:12:53 51°12.975 2°34.145 -999 4.113569 34.408093 0.462042
2009-05-20 13:13:53 51°13.067 2°34.402 -999 4.116784 34.401702 0.462042
2009-05-20 13:14:52 51°13.159 2°34.653 -999 4.116888 34.403429 0.427218
2009-05-20 13:15:53 51°13.253 2°34.913 -999 4.115228 34.40462 0.427218
2009-05-20 13:16:53 51°13.348 2°35.166 -999 4.112324 34.404814 0.462042
2009-05-20 13:17:53 51°13.443 2°35.415 -999 4.113361 34.400081 0.496866
2009-05-20 13:18:53 51°13.537 2°35.665 -999 4.116369 34.410724 0.566514
2009-05-20 13:19:53 51°13.626 2°35.916 -999 4.111183 34.423791 0.601338
2009-05-20 13:20:53 51°13.717 2°36.165 -999 4.110561 34.425577 0.53169
2009-05-20 13:21:53 51°13.808 2°36.409 -999 4.120722 34.174248 0.601338
2009-05-20 13:22:52 51°13.899 2°36.654 -999 4.115539 34.36584 0.53169
2009-05-20 13:23:53 51°13.991 2°36.908 -999 4.099462 34.406951 0.53169
2009-05-20 13:24:53 51°14.08 2°37.158 -999 4.093862 34.419304 0.53169
2009-05-20 13:25:53 51°14.152 2°37.419 -999 4.094587 34.399377 0.566514
2009-05-20 13:26:53 51°14.206 2°37.691 -999 4.091995 34.420887 0.601338
2009-05-20 13:27:53 51°14.238 2°37.971 -999 4.092617 34.423674 0.636162
2009-05-20 13:28:53 51°14.252 2°38.258 -999 4.093447 34.432236 0.636162
2009-05-20 13:29:53 51°14.255 2°38.547 -999 4.09967 34.427213 0.566514
2009-05-20 13:30:52 51°14.263 2°38.83 -999 4.116473 34.42384 0.496866
2009-05-20 13:31:53 51°14.273 2°39.122 -999 4.124668 34.452531 0.53169
2009-05-20 13:32:53 51°14.284 2°39.409 -999 4.124668 34.458603 0.53169
2009-05-20 13:33:53 51°14.295 2°39.696 -999 4.128402 34.457784 0.566514
2009-05-20 13:34:53 51°14.309 2°39.983 -999 4.129128 34.457732 0.601338
2009-05-20 13:35:53 51°14.322 2°40.269 -999 4.130269 34.453969 0.636162
2009-05-20 13:36:53 51°14.335 2°40.556 -999 4.131513 34.436797 0.601338
2009-05-20 13:37:53 51°14.348 2°40.845 -999 4.136803 34.432371 0.496866
2009-05-20 13:38:53 51°14.362 2°41.132 -999 4.135247 34.419409 0.462042
2009-05-20 13:39:53 51°14.376 2°41.42 -999 4.133795 34.414205 0.462042
2009-05-20 13:40:53 51°14.39 2°41.708 -999 4.128505 34.408026 0.496866
2009-05-20 13:41:53 51°14.405 2°41.997 -999 4.124771 34.398192 0.53169
2009-05-20 13:42:53 51°14.418 2°42.286 -999 4.125497 34.392859 0.53169
2009-05-20 13:43:53 51°14.43 2°42.576 -999 4.127779 34.392198 0.53169
2009-05-20 13:44:53 51°14.44 2°42.866 -999 4.13255 34.391309 0.566514
2009-05-20 13:45:53 51°14.448 2°43.157 -999 4.136699 34.395956 0.601338
2009-05-20 13:46:53 51°14.457 2°43.446 -999 4.141782 34.398736 0.601338
2009-05-20 13:47:53 51°14.465 2°43.731 -999 4.14811 34.402548 0.601338
2009-05-20 13:48:53 51°14.474 2°44.015 -999 4.154437 34.404875 0.775459
2009-05-20 13:49:53 51°14.483 2°44.297 -999 4.15786 34.389356 1.123699
2009-05-20 13:50:53 51°14.498 2°44.578 -999 4.156408 34.378176 1.611236
2009-05-20 13:51:53 51°14.512 2°44.86 -999 4.149769 34.372162 1.889828
2009-05-20 13:52:53 51°14.524 2°45.141 -999 4.140537 34.3729 2.063949
2009-05-20 13:53:53 51°14.536 2°45.421 -999 4.131616 34.384136 2.029124
2009-05-20 13:54:54 51°14.552 2°45.701 -999 4.125082 34.385216 2.063949
2009-05-20 13:55:53 51°14.568 2°45.974 -999 4.123215 34.382939 2.098773
2009-05-20 13:56:53 51°14.58 2°46.255 -999 4.122903 34.38004 1.9943
2009-05-20 13:57:52 51°14.585 2°46.532 -999 4.124978 34.37141 1.750532
2009-05-20 13:58:53 51°14.591 2°46.818 -999 4.135661 34.362235 1.506764
2009-05-20 13:59:53 51°14.6 2°47.099 -999 4.145619 34.364472 1.367467
2009-05-20 14:00:52 51°14.608 2°47.375 -999 4.152881 34.371752 1.297819
2009-05-20 14:01:53 51°14.619 2°47.661 -999 4.155059 34.38142 1.088875
2009-05-20 14:02:53 51°14.631 2°47.942 -999 4.147176 34.384888 0.949579
2009-05-20 14:03:53 51°14.64 2°48.224 -999 4.143234 34.381386 0.810283
2009-05-20 14:04:53 51°14.649 2°48.506 -999 4.143234 34.375378 0.740634
2009-05-20 14:05:53 51°14.66 2°48.787 -999 4.148524 34.37038 0.740634
2009-05-20 14:06:53 51°14.667 2°49.068 -999 4.143856 34.348887 0.914755
2009-05-20 14:07:53 51°14.661 2°49.35 -999 4.145204 34.313465 1.332643
2009-05-20 14:08:53 51°14.664 2°49.629 -999 4.144789 34.301407 1.402292
2009-05-20 14:09:53 51°14.666 2°49.908 -999 4.142298 34.239615 1.9943
2009-05-20 14:10:53 51°14.668 2°50.186 -999 4.140119 34.203132 1.959476
2009-05-20 14:11:53 51°14.671 2°50.462 -999 4.13794 34.157782 2.133597
2009-05-20 14:12:53 51°14.674 2°50.741 -999 4.128397 34.128345 2.168421
2009-05-20 14:13:53 51°14.677 2°51.019 -999 4.119891 34.116628 2.621133
2009-05-20 14:14:53 51°14.679 2°51.287 -999 4.119891 34.09135 2.238069
2009-05-20 14:15:53 51°14.677 2°51.508 -999 4.124766 34.076281 2.063949
2009-05-20 14:16:53 51°14.671 2°51.718 -999 4.131404 34.051675 1.855004
2009-05-20 14:17:53 51°14.659 2°51.928 -999 4.133685 34.021794 1.750532
2009-05-20 14:18:53 51°14.654 2°52.138 -999 4.131715 34.025033 1.750532
2009-05-20 14:19:53 51°14.651 2°52.35 -999 0.172709 1.11345 -0.408559
2009-05-20 14:20:53 51°14.643 2°52.564 -999 0.098193 0.616671 -0.478207
2009-05-20 14:21:53 51°14.632 2°52.78 -999 0.08502 0.530684 -0.478207
2009-05-20 14:22:53 51°14.621 2°52.996 -999 0.077816 0.482348 -0.513031
2009-05-20 14:23:53 51°14.611 2°53.218 -999 0.072979 0.450728 -0.513031
2009-05-20 14:24:53 51°14.599 2°53.485 -999 0.069891 0.430213 -0.513031
2009-05-20 14:25:53 51°14.575 2°53.768 -999 0.067113 0.412368 -0.513031
2009-05-20 14:26:53 51°14.545 2°54.05 -999 0.064746 0.39723 -0.513031
2009-05-20 14:27:53 51°14.517 2°54.326 -999 0.063923 0.391597 -0.513031
2009-05-20 14:28:53 51°14.474 2°54.599 -999 0.063511 0.388835 -0.513031
2009-05-20 14:29:53 51°14.421 2°54.869 -999 0.061144 0.373895 -0.513031
2009-05-20 14:30:53 51°14.337 2°55.131 -999 0.064334 0.393771 -0.513031
2009-05-20 14:31:53 51°14.231 2°55.303 -999 0.06279 0.383892 -0.513031
2009-05-20 14:32:53 51°14.142 2°55.391 -999 0.062688 0.383225 -0.513031
2009-05-20 14:33:53 51°14.024 2°55.476 -999 0.062276 0.38052 -0.513031
2009-05-20 14:34:56 51°13.889 2°55.575 -999 0.061658 0.376239 -0.513031
2009-05-20 14:35:57 51°13.784 2°55.658 -999 0.062585 0.381955 -0.513031
2009-05-20 14:36:57 51°13.723 2°55.763 -999 0.060218 0.366669 -0.513031
2009-05-20 14:37:57 51°13.681 2°55.868 -999 0.059806 0.363773 -0.547855
2009-05-20 14:38:57 51°13.665 2°55.945 -999 0.060629 0.368742 -0.513031